Regional Weather Roundup
Issued by NWS

Home | Current Version | Previous Version | Graphics & Text | Print | Product List | Glossary On
Versions: 1 2 3 4 5 6 7 8 9 10 11 12 13 14 15 16 17 18 19 20 21 22 23 24 25 26 27 28 29 30 31 32 33 34 35 36 37 38 39 40 41 42 43 44 45 46 47 48 49 50
000
ASUS43 KLOT 251104
RWRIL

ILLINOIS REGIONAL WEATHER ROUNDUP
NATIONAL WEATHER SERVICE CHICAGO/ROMEOVILLE IL
600 AM CDT FRI MAY 25 2018

NOTE: "FAIR" INDICATES FEW OR NO CLOUDS BELOW 12,000 FEET WITH NO
SIGNIFICANT WEATHER AND/OR OBSTRUCTIONS TO VISIBILITY.

* THESE STATIONS ARE NOT UNDER NWS QUALITY CONTROL. THEY ALSO MAY NOT
  REPORT WEATHER SUCH AS PRECIPITATION OR FOG.

ILZ001-002-007-009-015-016-024-251200-
NORTHWEST ILLINOIS

CITY           SKY/WX    TMP DP  RH WIND       PRES   REMARKS
MOLINE         FAIR      71  60  68 S7        29.91F
STERLING*        N/A    N/A N/A N/A MISG        N/A
SAVANNA*       FAIR      65  60  82 SE3       29.93S
$$

ILZ003-004-008-010-011-017-018-251200-
NORTH CENTRAL ILLINOIS

CITY           SKY/WX    TMP DP  RH WIND       PRES   REMARKS
ROCKFORD       FAIR      63  57  81 CALM      29.96S
FREEPORT*      FAIR      63  58  84 S7        29.95F
ROCHELLE*      FAIR      62  59  90 S7        29.96S
DE KALB*       FAIR      61  57  86 S7        29.97S
PERU*          FAIR      69  59  71 S6        29.96F
$$

ILZ005-006-012>014-019>023-251200-
NORTHEAST ILLINOIS

CITY           SKY/WX    TMP DP  RH WIND       PRES   REMARKS
CHICAGO-OHARE  FAIR      69  53  56 S5        29.95F
CHICAGO-MIDWAY FAIR      68  53  58 SW7       29.96S
AURORA         FAIR      62  57  83 CALM      29.96F
LANSING*       FAIR      62  55  76 CALM      29.98F
JOLIET*        FAIR      61  58  90 CALM      29.97S
WAUKEGAN       FAIR      66  54  65 SW9       29.94F
DUPAGE AIRPORT FAIR      61  55  81 S5        29.96F
KANKAKEE*      FAIR      62  53  72 CALM      29.99F
WHEELING       FAIR      64  56  75 S3        29.97S
MORRIS*        FAIR      63  55  76 S3        29.96S
ROMEOVILLE*    FAIR      63  55  76 S7        29.97S
NORTHERLY ISL    N/A     70  50  49 S3          N/A
$$

LMZ740>746-251200-
SOUTHERN LAKE MICHIGAN

STATION/POSITION SKY/WX   TEMP    WIND        PRES    VSBY  WAVE
                          AIR SEA DIR/SP/G                  HT/PER
                          (F)     (DEG/KT/KT) (MB)    (MI)  (FT/S)
SOUTHERN BUOY              49 39  180/ 10/ 10 1014.3F         0
WILMETTE HARBOR            60 55  180/  4/  6   N/A           0
HARRISON CRIB              72     200/ 14/ 15   N/A
BURNHAM HARBOR             70     170/  6/  9   N/A
CALUMET HARBOR             69     180/  5/  8 1014.2F
BURNS HARBOR               67     190/  9/ 11 1015.6S
MICHIGAN CITY              70     160/ 13/ 15   N/A
MICHIGAN CITY 6N           62 59  190/  6/  8   N/A           0
ST. JOSEPH                 62 57  190/  8/  8 1015.1F         0
$$

ILZ025>027-034>036-040-047-049-050-058-095>099-251200-
WEST-CENTRAL ILLINOIS

CITY           SKY/WX    TMP DP  RH WIND       PRES   REMARKS
QUINCY         MOCLDY    69  62  78 S6        29.93F
MACOMB*        CLEAR     64  60  86 S5        29.96F
JACKSONVILLE*  PTCLDY    70  60  69 S6        29.96S
PITTSFIELD*    CLEAR     68  64  86 S3        29.96S
$$

ILZ028>032-037-038-041>044-048-051>054-059>061-251200-
CENTRAL ILLINOIS

CITY           SKY/WX    TMP DP  RH WIND       PRES   REMARKS
PONTIAC        FAIR      62  59  89 CALM      29.98S
BLOOMINGTON    FAIR      63  54  72 S5        29.99F
DECATUR        FAIR      62  55  77 S3        29.98F
PEORIA         FAIR      66  59  78 CALM      29.96F
LACON*         FAIR      65  59  81 SE3       29.95S
LINCOLN*       FAIR      62  57  84 CALM      29.97S
SPRINGFIELD    FAIR      68  60  75 S3        29.97S
TAYLORVILLE    FAIR      64  58  82 S5        29.98S
$$

ILZ033-039-045-046-055>057-062-063-251200-
EAST-CENTRAL ILLINOIS

CITY           SKY/WX    TMP DP  RH WIND       PRES   REMARKS
CHAMPAIGN      FAIR      65  55  70 SE6       29.99F
DANVILLE*      FAIR      61  55  82 CALM      29.98F
RANTOUL*       FAIR      64  58  79 SE3       29.99F
MATTOON        FAIR      63  57  81 S6        29.99S
PARIS*         FAIR      60  56  87 CALM      30.01F
$$

ILZ079-100>102-251200-
SOUTHWEST ILLINOIS

CITY           SKY/WX    TMP DP  RH WIND       PRES   REMARKS
ALTON          CLEAR     64  64 100 E3        29.98S
BELLEVILLE     PTCLDY    65  64  97 CALM      29.96F
CAHOKIA*       PTCLDY    65  62  90 CALM      29.96F
SPARTA*        CLEAR     66  66 100 SE3       29.99S
$$

ILZ064>066-069>071-074>076-080>082-084>086-088>090-092>094-251200-
SOUTH-CENTRAL ILLINOIS

CITY           SKY/WX    TMP DP  RH WIND       PRES   REMARKS
CARBONDALE     FAIR      64  62  93 CALM      29.98F
CAIRO*         FAIR      67  67  98 CALM      29.99S
EFFINGHAM*     FAIR      60  58  94 CALM      30.01S
MARION         FAIR      65  63  94 CALM      29.99F
MT. VERNON     FAIR      56  56 100 CALM      29.99F FOG
CENTRALIA*     CLEAR     64  62  94 CALM      29.98S
SALEM*         FAIR      65  58  78 CALM      29.99S
METROPOLIS*    FAIR      65  64  96 CALM      30.00S FOG
$$

ILZ067-068-072-073-078-083-087-091-251200-
SOUTHEAST ILLINOIS

CITY           SKY/WX    TMP DP  RH WIND       PRES   REMARKS
LAWRENCEVILLE  FAIR      63  57  81 CALM      30.01S
FLORA*         FAIR      62  59  91 CALM      30.00S
FAIRFIELD*     FAIR      61  58  90 CALM      29.99F
HARRISBURG*    FAIR      63  62  97 CALM      29.99F
ROBINSON*      FAIR      56  56  97 CALM      30.02S
CARMI*         FAIR      60  60  99 CALM      30.00S
$$

ABBREVIATIONS USED IN REMARKS
   TC - TEMPERATURE IN CELSIUS
  WCI - WIND CHILL INDEX
   HX - HEAT INDEX
  VSB - VISIBILITY
$$





USA.gov is the U.S. government's official web portal to all federal, state and local government web resources and services.